Home > Time Zones > World Clock > Weather > Greece > Ilio > Past weeks

Flag Weather past 2 weeks in Ilio, Greece

Now
55 °F

Partly cloudy.


Feels Like: 55 °F
Forecast: 54 / 65 °F
Wind: No wind

Location: Elefsis Airport

Current Time: Nov 29, 2014 at 2:42:45 AM

Latest Report: Nov 29, 2014 at 1:50 AM


Visibility: N/A

Pressure: 30.24 "Hg

Humidity: 88%

Dew point: 52 °F

Location of IlioLocation

Historic Weather in Ilio — Graph

°F

Ilio temperature yesterday

Maximum temperature yesterday: 57 °F (at 12:20 PM)
Minimum temperature yesterday: 50 °F (at 12:20 AM)
Average temperature yesterday: 54 °F

Past Weeks' High & Low Weather Summary

 TemperatureHumidityPressure
High73 °F (Nov 17, 1:50 PM)100% (Nov 17, 5:20 PM)30.30 "Hg (Nov 17, 5:20 PM)
Low45 °F (Nov 24, 6:50 AM)32% (Nov 20, 10:50 AM)29.74 "Hg (Nov 14, 4:20 AM)
Average56 °F70%30.09 "Hg
* Reported Nov 14 12:20 AM — Nov 29 12:50 AM, Ilio, Weather by CustomWeather, © 2014

Note: Actual official high and low records may vary slightly from our data, if they occured in-between our weather recording intervals... More about our weather records

Advertising

Ilio weather history for previous 24 hours

 ConditionsComfort  
Time TempWeatherWind HumidityBarometerVisibility
12:50 AM
Nov 29
55 °FMostly cloudy.No wind88%30.24 "HgN/A
12:20 AM55 °FMostly cloudy.No wind88%30.24 "HgN/A
11:50 PM
Nov 28
55 °FMostly cloudy.No wind88%30.24 "HgN/A
11:20 PM55 °FMostly cloudy.No wind88%30.24 "HgN/A
10:50 PM55 °FMostly cloudy.No wind88%30.24 "HgN/A
10:20 PM55 °FMostly cloudy.No wind88%30.24 "HgN/A
9:50 PM57 °FMostly cloudy.No wind82%30.24 "HgN/A
9:20 PM55 °FPartly cloudy.3 mph88%30.24 "HgN/A
8:50 PM55 °FMostly cloudy.No wind88%30.24 "HgN/A
8:20 PM55 °FMostly cloudy.No wind88%30.24 "HgN/A
7:50 PM55 °FMostly cloudy.No wind88%30.24 "HgN/A
7:20 PM55 °FMostly cloudy.No wind88%30.24 "HgN/A
6:50 PM55 °FMostly cloudy.No wind88%30.24 "HgN/A
6:20 PM57 °FMostly cloudy.No wind77%30.21 "HgN/A
5:50 PM55 °FMostly cloudy.No wind88%30.21 "HgN/A
5:20 PM55 °FMostly cloudy.No wind82%30.21 "HgN/A
4:50 PM57 °FMore clouds than sun.No wind77%30.21 "HgN/A
4:20 PM57 °FMore clouds than sun.No wind77%30.21 "HgN/A
3:50 PM57 °FMore clouds than sun.No wind77%30.21 "HgN/A
3:20 PM57 °FMore clouds than sun.No wind77%30.21 "HgN/A
2:50 PM57 °FMore clouds than sun.No wind77%30.21 "HgN/A
2:20 PM57 °FMore clouds than sun.No wind77%30.21 "HgN/A
1:50 PM57 °FMore clouds than sun.No wind77%30.21 "HgN/A
1:20 PM57 °FMore clouds than sun.No wind72%30.21 "HgN/A
12:50 PM57 °FMore clouds than sun.No wind77%30.21 "HgN/A
12:20 PM57 °FMore clouds than sun.No wind77%30.21 "HgN/A
11:50 AM55 °FMore clouds than sun.No wind82%30.21 "HgN/A
10:50 AM55 °FMore clouds than sun.No wind82%30.24 "HgN/A
10:20 AM55 °FMore clouds than sun.No wind82%30.21 "HgN/A
9:50 AM54 °FMore clouds than sun.No wind88%30.21 "HgN/A
9:20 AM54 °FMore clouds than sun.No wind88%30.21 "HgN/A
8:50 AM54 °FMore clouds than sun.No wind88%30.21 "HgN/A
8:20 AM54 °FMore clouds than sun.No wind88%30.21 "HgN/A
7:50 AM52 °FMore clouds than sun.No wind94%30.21 "HgN/A
7:20 AM52 °FBroken clouds.No wind94%30.18 "Hg5 mi
6:50 AM52 °FPartly cloudy.No wind94%30.18 "Hg5 mi
6:20 AM52 °FPartly cloudy.No wind94%30.18 "Hg5 mi
5:50 AM52 °FPartly cloudy.No wind88%30.15 "HgN/A
5:20 AM52 °FPartly cloudy.No wind88%30.15 "HgN/A
4:50 AM52 °FPartly cloudy.No wind88%30.18 "HgN/A
4:20 AM52 °FPassing clouds.No wind88%30.18 "HgN/A
3:50 AM52 °FPassing clouds.No wind88%30.15 "HgN/A
3:20 AM52 °FPassing clouds.No wind88%30.15 "HgN/A
2:50 AM50 °FPassing clouds.No wind94%30.15 "Hg6 mi
2:20 AM50 °FMostly cloudy.No wind94%30.15 "Hg6 mi
Weather by CustomWeather, © 2014

See weather overviewHow to use our weather pages